When you browse on this site, cookies collect data to enhance your experience and personalize the content and advertising you see.
Visit our Privacy Policy to learn more. By continuing to use the site, you agree to this use of cookies and data.
  • In Sweden
  • List of Countries
  • For 7 days
  • Water Temperature
  • Satellite Maps
  • Weather Map
  • Weather Widgets
  • user-avatar
    Login

    Hourly Weather Ambad

    Today, 17 December, Monday

    Time Temperature Precipitation Wind Pressure Humidity
    00:00 +17°C° 0 mm 2 mps 720 mmHg 49%
    01:00 +17°C° 0 mm 2 mps 720 mmHg 51%
    02:00 +16°C° 0 mm 2 mps 720 mmHg 52%
    03:00 +16°C° 0 mm 2 mps 719 mmHg 53%
    04:00 +16°C° 0 mm 2 mps 719 mmHg 54%
    05:00 +15°C° 0 mm 2 mps 719 mmHg 56%
    06:00 +16°C° 0 mm 3 mps 719 mmHg 53%
    07:00 +17°C° 0 mm 3 mps 719 mmHg 50%
    08:00 +18°C° 0 mm 3 mps 720 mmHg 48%
    09:00 +20°C° 0 mm 3 mps 720 mmHg 44%
    10:00 +22°C° 0 mm 4 mps 720 mmHg 40%
    11:00 +25°C° 0 mm 4 mps 720 mmHg 35%
    12:00 +25°C° 0 mm 4 mps 719 mmHg 35%
    13:00 +26°C° 0 mm 4 mps 719 mmHg 36%
    14:00 +26°C° 0 mm 4 mps 718 mmHg 36%
    15:00 +26°C° 0 mm 4 mps 718 mmHg 37%
    16:00 +25°C° 0 mm 3 mps 718 mmHg 38%
    17:00 +25°C° 0 mm 3 mps 718 mmHg 39%
    18:00 +24°C° 0 mm 3 mps 718 mmHg 40%
    19:00 +22°C° 0 mm 3 mps 718 mmHg 41%
    20:00 +20°C° 0 mm 3 mps 719 mmHg 42%
    21:00 +19°C° 0 mm 3 mps 719 mmHg 45%
    22:00 +19°C° 0 mm 3 mps 719 mmHg 48%
    23:00 +18°C° 0 mm 3 mps 719 mmHg 51%

    Tomorrow, 18 December, Tuesday

    Time Temperature Precipitation Wind Pressure Humidity
    00:00 +17°C° 0 mm 2 mps 719 mmHg 56%
    01:00 +17°C° 0 mm 2 mps 719 mmHg 61%
    02:00 +16°C° 0 mm 2 mps 718 mmHg 66%
    03:00 +16°C° 0 mm 2 mps 719 mmHg 68%
    04:00 +15°C° 0 mm 2 mps 719 mmHg 70%
    05:00 +15°C° 0 mm 2 mps 719 mmHg 73%
    06:00 +16°C° 0 mm 2 mps 720 mmHg 69%
    07:00 +17°C° 0 mm 3 mps 720 mmHg 65%
    08:00 +18°C° 0 mm 3 mps 721 mmHg 61%
    09:00 +20°C° 0 mm 3 mps 721 mmHg 54%
    10:00 +22°C° 0 mm 4 mps 721 mmHg 46%
    11:00 +25°C° 0 mm 4 mps 721 mmHg 39%
    12:00 +26°C° 0 mm 4 mps 720 mmHg 35%
    13:00 +27°C° 0 mm 4 mps 719 mmHg 30%
    14:00 +28°C° 0 mm 4 mps 719 mmHg 26%
    15:00 +27°C° 0 mm 4 mps 718 mmHg 27%
    16:00 +26°C° 0 mm 3 mps 718 mmHg 29%
    17:00 +25°C° 0 mm 3 mps 718 mmHg 31%
    18:00 +24°C° 0 mm 3 mps 718 mmHg 33%
    19:00 +22°C° 0 mm 3 mps 719 mmHg 34%
    20:00 +20°C° 0 mm 3 mps 719 mmHg 36%
    21:00 +20°C° 0 mm 3 mps 719 mmHg 37%
    22:00 +19°C° 0 mm 3 mps 719 mmHg 38%
    23:00 +19°C° 0 mm 3 mps 719 mmHg 39%

    Day after tomorrow, 19 December, Wednesday

    Time Temperature Precipitation Wind Pressure Humidity
    00:00 +18°C° 0 mm 3 mps 719 mmHg 41%
    01:00 +17°C° 0 mm 3 mps 718 mmHg 43%
    02:00 +17°C° 0 mm 3 mps 718 mmHg 44%
    03:00 +16°C° 0 mm 3 mps 718 mmHg 47%
    04:00 +16°C° 0 mm 2 mps 718 mmHg 49%
    05:00 +16°C° 0 mm 2 mps 718 mmHg 51%
    06:00 +16°C° 0 mm 2 mps 719 mmHg 53%
    07:00 +17°C° 0 mm 3 mps 720 mmHg 55%
    08:00 +18°C° 0 mm 3 mps 721 mmHg 56%
    09:00 +20°C° 0 mm 3 mps 721 mmHg 51%
    10:00 +22°C° 0 mm 3 mps 721 mmHg 46%
    11:00 +25°C° 0 mm 4 mps 721 mmHg 41%
    12:00 +26°C° 0 mm 4 mps 720 mmHg 37%
    13:00 +27°C° 0 mm 3 mps 719 mmHg 33%
    14:00 +28°C° 0 mm 3 mps 718 mmHg 28%
    15:00 +27°C° 0 mm 3 mps 718 mmHg 30%
    16:00 +26°C° 0 mm 3 mps 718 mmHg 32%
    17:00 +26°C° 0 mm 2 mps 718 mmHg 33%
    18:00 +24°C° 0 mm 3 mps 719 mmHg 35%
    19:00 +22°C° 0 mm 3 mps 719 mmHg 37%
    20:00 +21°C° 0 mm 3 mps 720 mmHg 39%
    21:00 +20°C° 0 mm 3 mps 719 mmHg 42%
    22:00 +19°C° 0 mm 3 mps 719 mmHg 44%
    23:00 +18°C° 0 mm 3 mps 719 mmHg 47%

    20 December, Thursday

    Time Temperature Precipitation Wind Pressure Humidity
    00:00 +18°C° 0 mm 2 mps 719 mmHg 50%
    01:00 +17°C° 0 mm 2 mps 719 mmHg 53%
    02:00 +16°C° 0 mm 2 mps 718 mmHg 56%
    03:00 +16°C° 0 mm 2 mps 718 mmHg 59%
    04:00 +15°C° 0 mm 2 mps 718 mmHg 61%
    05:00 +15°C° 0 mm 1 mps 718 mmHg 64%
    06:00 +16°C° 0 mm 2 mps 719 mmHg 60%
    07:00 +17°C° 0 mm 2 mps 720 mmHg 57%
    08:00 +18°C° 0 mm 2 mps 721 mmHg 53%
    09:00 +21°C° 0 mm 2 mps 721 mmHg 48%
    10:00 +24°C° 0 mm 3 mps 721 mmHg 43%
    11:00 +26°C° 0 mm 3 mps 721 mmHg 38%
    12:00 +27°C° 0 mm 3 mps 720 mmHg 35%
    13:00 +28°C° 0 mm 3 mps 719 mmHg 33%
    14:00 +29°C° 0 mm 2 mps 718 mmHg 31%
    15:00 +28°C° 0 mm 2 mps 718 mmHg 33%
    16:00 +27°C° 0 mm 2 mps 717 mmHg 35%
    17:00 +26°C° 0 mm 2 mps 717 mmHg 37%
    18:00 +25°C° 0 mm 2 mps 718 mmHg 38%
    19:00 +24°C° 0 mm 2 mps 718 mmHg 39%
    20:00 +21°C° 0 mm 2 mps 719 mmHg 41%
    21:00 +21°C° 0 mm 2 mps 719 mmHg 41%
    22:00 +20°C° 0 mm 2 mps 719 mmHg 41%
    23:00 +20°C° 0 mm 3 mps 719 mmHg 41%

    21 December, Friday

    Time Temperature Precipitation Wind Pressure Humidity
    00:00 +19°C° 0 mm 2 mps 718 mmHg 42%
    01:00 +19°C° 0 mm 2 mps 718 mmHg 43%
    02:00 +18°C° 0 mm 2 mps 718 mmHg 44%
    03:00 +18°C° 0 mm 2 mps 718 mmHg 45%
    04:00 +17°C° 0 mm 2 mps 718 mmHg 47%
    05:00 +17°C° 0 mm 2 mps 718 mmHg 48%
    06:00 +18°C° 0 mm 2 mps 718 mmHg 46%
    07:00 +19°C° 0 mm 2 mps 719 mmHg 44%
    08:00 +20°C° 0 mm 2 mps 720 mmHg 42%
    09:00 +23°C° 0 mm 2 mps 720 mmHg 37%
    10:00 +25°C° 0 mm 2 mps 720 mmHg 32%
    11:00 +27°C° 0 mm 2 mps 720 mmHg 27%
    12:00 +28°C° 0 mm 2 mps 719 mmHg 25%
    13:00 +29°C° 0 mm 1 mps 719 mmHg 23%
    14:00 +30°C° 0 mm 1 mps 718 mmHg 22%
    15:00 +29°C° 0 mm 1 mps 718 mmHg 24%
    16:00 +28°C° 0 mm 1 mps 717 mmHg 26%
    17:00 +27°C° 0 mm 1 mps 717 mmHg 28%
    18:00 +25°C° 0 mm 2 mps 717 mmHg 28%
    19:00 +24°C° 0 mm 2 mps 718 mmHg 27%
    20:00 +23°C° 0 mm 2 mps 718 mmHg 27%
    21:00 +21°C° 0 mm 2 mps 718 mmHg 28%
    22:00 +20°C° 0 mm 3 mps 718 mmHg 28%
    23:00 +20°C° 0 mm 3 mps 718 mmHg 28%

    22 December, Saturday

    Time Temperature Precipitation Wind Pressure Humidity
    00:00 +19°C° 0 mm 2 mps 718 mmHg 29%
    01:00 +18°C° 0 mm 2 mps 717 mmHg 29%
    02:00 +18°C° 0 mm 2 mps 717 mmHg 30%
    03:00 +17°C° 0 mm 2 mps 717 mmHg 31%
    04:00 +17°C° 0 mm 2 mps 717 mmHg 32%
    05:00 +17°C° 0 mm 2 mps 717 mmHg 33%
    06:00 +18°C° 0 mm 2 mps 718 mmHg 32%
    07:00 +19°C° 0 mm 2 mps 719 mmHg 31%
    08:00 +20°C° 0 mm 2 mps 719 mmHg 31%
    09:00 +23°C° 0 mm 2 mps 720 mmHg 27%
    10:00 +26°C° 0 mm 2 mps 720 mmHg 24%
    11:00 +28°C° 0 mm 3 mps 720 mmHg 21%
    12:00 +29°C° 0 mm 2 mps 719 mmHg 21%
    13:00 +29°C° 0 mm 1 mps 718 mmHg 22%
    14:00 +28°C° 0 mm 0 mps 718 mmHg 22%
    15:00 +27°C° 0 mm 0 mps 717 mmHg 26%
    16:00 +26°C° 0 mm 0 mps 717 mmHg 30%
    17:00 +27°C° 0 mm 1 mps 717 mmHg 35%
    18:00 +26°C° 0 mm 1 mps 718 mmHg 33%
    19:00 +25°C° 0 mm 2 mps 718 mmHg 32%
    20:00 +24°C° 0 mm 2 mps 718 mmHg 31%
    21:00 +23°C° 0 mm 2 mps 718 mmHg 29%
    22:00 +21°C° 0 mm 3 mps 718 mmHg 28%
    23:00 +21°C° 0 mm 3 mps 718 mmHg 27%
    Show more